Weather History for Opa Locka, FL

Change the Weather History Date:

Tuesday, May 28, 2013

  Actual Average Record
Temperature  
Mean Temperature 80 °F -  
Max Temperature 87 °F 86 °F 92 °F (1973)
Min Temperature 75 °F 70 °F 54 °F (1985)
Cooling Degree Days 14    
Growing Degree Days 30 (Base 50)    
Moisture  
Dew Point 71 °F    
Average Humidity 77    
Maximum Humidity 94    
Minimum Humidity 60    
Precipitation  
Precipitation 0.10 in - - ()
Sea Level Pressure  
Sea Level Pressure 30.08 in    
Wind  
Wind Speed 13 mph (ESE)    
Max Wind Speed 20 mph    
Max Gust Speed 30 mph    
Visibility 10 miles    
Events Rain , Thunderstorm    
Averages and records for this station are not official NWS values.
T = Trace of Precipitation, MM = Missing Value Source: NWS Daily Summary

Daily Weather History Graph

Daily Weather History Graph

Search for Another Location

Airport:

Trip Planner

Search our weather history database for the weather conditions in past years. The results will help you decide how hot, cold, wet, or windy it might be!

Date:

Astronomy

May. 28, 2013 Rise Set
Actual Time 6:30 AM EDT 8:06 PM EDT
Civil Twilight 6:04 AM EDT 8:32 PM EDT
Nautical Twilight 5:34 AM EDT 9:03 PM EDT
Astronomical Twilight 5:01 AM EDT 9:35 PM EDT
Moon 11:41 PM EDT (5/28) 10:07 AM EDT (5/28)
Length of Visible Light 14h 27m
Length of Day
13h 36m
Waning Gibbous, 83% of the Moon is Illuminated
May 28
Waning Gibbous
May 31
Last Quarter
Jun 8
New
Jun 16
First Quarter
Jun 23
Full

Hourly Weather History & Observations

Time (EDT) Temp. Heat Index Dew Point Humidity Pressure Visibility Wind Dir Wind Speed Gust Speed Precip Events Conditions
12:53 AM 77.0 °F - 71.1 °F 82% 30.11 in 10.0 mi East 12.7 mph 17.3 mph 0.00 in   Overcast
1:17 AM 75.2 °F - 71.6 °F 89% 30.10 in 7.0 mi East 15.0 mph 29.9 mph 0.10 in Rain , Thunderstorm Light Thunderstorms and Rain
1:27 AM 75.2 °F - 71.6 °F 89% 30.10 in 10.0 mi East 11.5 mph - 0.10 in   Mostly Cloudy
1:40 AM 75.2 °F - 73.4 °F 94% 30.09 in 10.0 mi East 9.2 mph - 0.10 in   Mostly Cloudy
1:53 AM 75.0 °F - 72.0 °F 90% 30.09 in 10.0 mi East 9.2 mph - 0.10 in   Scattered Clouds
2:53 AM 75.9 °F - 73.0 °F 91% 30.06 in 10.0 mi ENE 6.9 mph - N/A   Partly Cloudy
3:53 AM 78.1 °F - 71.1 °F 79% 30.05 in 10.0 mi East 10.4 mph - N/A   Mostly Cloudy
4:53 AM 77.0 °F - 72.0 °F 84% 30.05 in 10.0 mi East 12.7 mph - N/A   Partly Cloudy
5:53 AM 78.1 °F - 72.0 °F 81% 30.04 in 10.0 mi East 15.0 mph 21.9 mph 0.00 in   Overcast
6:53 AM 77.0 °F - 72.0 °F 84% 30.05 in 10.0 mi East 13.8 mph 23.0 mph 0.00 in   Mostly Cloudy
7:53 AM 77.0 °F - 73.0 °F 88% 30.07 in 10.0 mi ESE 10.4 mph - 0.00 in   Mostly Cloudy
8:12 AM 77.0 °F - 71.6 °F 83% 30.08 in 10.0 mi ESE 9.2 mph - N/A   Mostly Cloudy
8:45 AM 78.8 °F - 73.4 °F 83% 30.08 in 10.0 mi SE 8.1 mph - N/A   Mostly Cloudy
8:53 AM 77.0 °F - 71.1 °F 82% 30.10 in 10.0 mi ESE 18.4 mph 26.5 mph N/A   Overcast
9:06 AM 77.0 °F - 71.6 °F 83% 30.10 in 10.0 mi ESE 15.0 mph 21.9 mph 0.00 in   Overcast
9:49 AM 78.8 °F - 71.6 °F 78% 30.10 in 10.0 mi ESE 16.1 mph 21.9 mph 0.00 in   Mostly Cloudy
9:53 AM 77.0 °F - 72.0 °F 84% 30.10 in 10.0 mi ESE 8.1 mph 21.9 mph 0.00 in Rain Light Rain
10:15 AM 78.8 °F - 71.6 °F 78% 30.09 in 10.0 mi ESE 15.0 mph 25.3 mph 0.00 in   Mostly Cloudy
10:53 AM 79.0 °F - 71.1 °F 77% 30.09 in 10.0 mi ESE 12.7 mph - 0.00 in   Mostly Cloudy
11:16 AM 80.6 °F 84.6 °F 71.6 °F 74% 30.09 in 10.0 mi ESE 17.3 mph 21.9 mph N/A   Scattered Clouds
11:40 AM 80.6 °F 84.6 °F 71.6 °F 74% 30.09 in 10.0 mi ESE 16.1 mph 23.0 mph N/A   Mostly Cloudy
11:53 AM 81.0 °F 84.9 °F 71.1 °F 72% 30.09 in 10.0 mi ESE 13.8 mph - N/A   Mostly Cloudy
12:53 PM 82.9 °F 87.5 °F 71.1 °F 67% 30.09 in 10.0 mi ESE 13.8 mph 27.6 mph 0.00 in   Mostly Cloudy
1:08 PM 82.4 °F 87.2 °F 71.6 °F 70% 30.09 in 10.0 mi ESE 18.4 mph 26.5 mph N/A   Mostly Cloudy
1:23 PM 82.4 °F 87.2 °F 71.6 °F 70% 30.09 in 10.0 mi East 17.3 mph 24.2 mph N/A   Mostly Cloudy
1:53 PM 82.0 °F 86.3 °F 71.1 °F 69% 30.09 in 10.0 mi ESE 16.1 mph 25.3 mph N/A   Mostly Cloudy
2:53 PM 84.0 °F 88.4 °F 70.0 °F 63% 30.07 in 10.0 mi East 19.6 mph 25.3 mph N/A   Mostly Cloudy
3:53 PM 82.9 °F 85.8 °F 68.0 °F 60% 30.07 in 10.0 mi SE 17.3 mph - N/A   Scattered Clouds
4:53 PM 82.0 °F 85.5 °F 69.1 °F 65% 30.06 in 10.0 mi SE 15.0 mph 21.9 mph N/A   Mostly Cloudy
5:53 PM 81.0 °F 84.1 °F 69.1 °F 67% 30.06 in 10.0 mi East 11.5 mph - N/A   Clear
6:53 PM 79.0 °F - 70.0 °F 74% 30.05 in 10.0 mi ESE 11.5 mph - N/A   Clear
7:53 PM 79.0 °F - 70.0 °F 74% 30.07 in 10.0 mi East 11.5 mph - N/A   Partly Cloudy
8:53 PM 79.0 °F - 69.1 °F 72% 30.07 in 10.0 mi East 17.3 mph - N/A   Clear
9:53 PM 78.1 °F - 70.0 °F 76% 30.08 in 10.0 mi ESE 10.4 mph - N/A   Scattered Clouds
10:53 PM 78.1 °F - 68.0 °F 71% 30.08 in 10.0 mi ESE 9.2 mph - N/A   Clear
11:53 PM 78.1 °F - 68.0 °F 71% 30.08 in 10.0 mi ESE 11.5 mph - N/A   Clear